Theta_e
319 319 319 319 318 318 317 316 315 315 315 315 315 314 315 315 315 313 307 314 317 324 319 316 319 318 317 315 316 315 306 305 307 311 314 318 315 321 320 316 319 328 334 348 353
318 318 318 318 318 318 318 317 316 315 315 316 315 314 314 314 312 309 319 325 321 317 313 313 313 315 313 312 313 310 304 308 310 313 313 316 315 316 314 316 317 324 339 348 351
317 317 317 317 317 317 317 318 316 315 315 315 315 314 313 314 308 308 328 325 324 320 316 316 315 314 310 312 313 312 308 311 310 312 312 314 315 315 313 314 318 318 329 341 345
316 316 316 316 316 316 317 317 317 316 315 315 314 314 314 313 298 312 326 329 322 317 313 313 312 309 308 308 314 309 313 314 311 310 309 310 316 314 314 316 319 318 320 333 341
315 316 316 316 315 315 316 317 316 316 314 314 313 314 311 306 306 314 322 325 321 314 309 311 308 309 306 309 311 310 313 314 315 315 312 314 313 312 314 318 319 319 319 320 339
316 315 315 316 315 315 315 315 316 315 314 314 313 314 309 301 314 314 318 322 318 312 309 311 309 310 309 308 311 313 315 315 317 315 315 312 313 313 314 320 318 319 318 320 324
315 316 316 315 316 315 315 315 315 315 314 314 314 314 308 306 313 315 318 320 315 312 308 312 313 309 310 308 315 315 311 313 314 315 314 313 310 310 315 316 315 317 318 319 321
315 315 316 315 315 315 315 315 315 315 315 314 315 311 304 317 319 315 314 320 315 314 312 315 315 311 309 314 311 309 311 306 312 314 313 311 305 314 317 315 315 317 318 318 320
315 315 315 314 314 314 314 313 314 316 315 314 312 309 305 319 312 315 318 317 312 313 314 312 312 307 308 305 304 306 302 303 304 308 309 309 308 312 315 312 313 316 318 318 318
315 314 314 314 314 314 314 313 314 313 313 313 312 302 309 307 313 313 319 317 310 309 307 306 306 302 305 302 295 298 301 303 301 303 305 306 308 310 313 312 311 313 316 316 317
315 314 313 313 314 313 312 313 308 304 308 307 307 306 308 314 315 314 315 313 309 305 299 303 299 297 301 303 303 303 301 299 302 305 302 300 301 306 309 310 310 312 315 319 320
314 314 313 312 313 313 312 308 309 313 306 311 311 309 313 313 307 310 313 304 303 298 302 300 296 302 304 304 302 302 300 299 302 304 303 301 299 303 306 308 310 310 313 315 315
313 313 312 312 312 310 309 310 314 315 305 308 311 308 310 313 307 305 308 306 302 299 300 297 300 303 302 301 301 302 300 300 299 303 304 301 298 300 305 309 311 311 315 317 318
312 312 312 312 307 312 309 317 315 315 300 302 305 307 310 310 306 310 310 306 302 299 300 300 304 301 300 300 302 298 303 302 301 300 295 301 290 299 302 304 307 311 314 316 318
312 312 311 310 310 310 315 319 316 311 289 305 304 314 310 305 308 306 310 308 300 300 301 298 300 300 299 300 303 300 305 302 302 300 299 298 293 297 304 301 305 308 313 317 319
312 312 311 311 308 313 319 316 312 297 289 299 304 303 303 305 307 307 305 310 308 302 303 302 306 305 304 305 305 306 302 302 302 300 293 297 296 295 300 304 306 310 313 315 317
311 311 308 311 310 317 319 310 294 291 304 298 299 303 303 302 303 302 302 302 300 296 296 301 302 305 306 302 305 303 300 293 292 292 292 301 298 299 306 306 311 312 314 315 316
309 308 313 312 317 314 309 300 290 296 299 304 301 303 300 302 302 302 300 299 305 302 298 296 294 301 304 303 300 301 301 295 289 290 293 301 295 301 310 312 313 314 315 317 317
306 317 319 316 321 315 305 292 293 299 302 302 301 299 300 302 301 301 301 300 303 305 298 296 296 304 305 306 306 301 298 304 298 300 296 297 303 308 310 310 312 313 315 315 316
309 313 316 320 322 316 302 295 297 304 303 304 297 300 297 299 298 299 299 303 302 306 308 302 295 303 304 306 306 305 306 298 299 291 289 295 297 298 305 307 310 311 312 314 315
310 311 320 319 319 307 296 297 300 306 304 300 301 298 300 299 299 298 299 302 305 305 307 305 302 299 303 301 300 301 302 302 302 298 292 291 295 309 307 310 310 311 313 314 314
309 306 320 318 305 306 300 302 301 303 307 302 303 304 301 301 299 298 299 301 305 306 302 306 302 298 300 305 307 307 301 303 297 295 299 298 297 310 311 312 313 312 313 314 314
303 309 319 315 299 302 305 302 303 300 303 301 299 305 308 302 298 301 302 306 307 305 303 306 302 296 296 302 305 302 304 304 304 303 298 294 297 310 311 312 313 312 312 313 312
305 304 312 312 311 303 300 300 297 303 301 304 303 304 306 303 305 301 302 305 307 307 308 310 302 299 294 297 301 298 300 303 302 299 297 298 299 306 307 308 310 311 312 312 311
309 305 307 299 301 300 305 299 294 295 303 305 303 303 302 299 300 300 303 303 305 304 306 306 299 301 299 300 300 300 300 301 300 301 298 299 298 302 305 305 306 308 309 309 309
299 298 301 303 303 301 300 297 294 298 300 299 299 303 305 303 304 300 303 303 302 305 304 308 299 301 297 299 299 297 298 299 299 299 299 299 298 304 305 306 306 308 308 308 308
306 304 300 301 300 296 299 300 298 301 303 304 302 303 300 303 307 310 311 309 308 305 303 304 301 299 294 298 296 292 296 297 298 300 299 295 300 305 305 305 307 308 308 308 309
Wind_Speed
14 14 13 11 10 9 8 8 8 9 10 8 7 8 8 7 9 15 19 7 10 3 7 15 21 19 17 16 15 15 10 15 20 23 9 8 9 8 3 9 4 5 12 17 17
12 12 13 13 11 10 8 8 8 8 10 9 6 7 8 7 16 22 20 17 7 1 11 19 24 21 18 21 17 16 14 17 8 2 10 7 8 6 5 11 9 7 6 9 13
11 12 12 13 12 11 10 8 9 8 8 7 7 7 7 11 15 14 6 23 16 14 16 19 23 23 24 22 24 22 19 20 8 5 16 18 8 2 8 7 0 9 2 9 10
10 11 12 11 13 12 11 10 9 8 7 8 6 6 5 11 6 11 13 16 20 20 20 17 24 28 27 27 25 23 22 22 4 3 12 18 23 9 10 12 11 0 4 11 10
11 12 13 12 10 11 9 10 10 9 7 7 5 4 8 10 17 8 11 14 23 21 24 23 22 28 27 24 25 25 16 23 23 8 14 9 20 16 16 13 11 14 7 10 11
12 14 14 12 10 10 10 10 10 10 8 7 5 7 12 17 7 3 8 10 20 25 24 28 20 23 24 26 19 15 17 16 17 17 10 14 15 17 24 17 13 14 14 10 9
12 13 15 14 12 10 10 10 10 10 9 8 7 11 15 21 3 4 6 13 20 27 25 27 24 22 24 25 20 21 21 22 19 14 13 10 21 13 22 16 16 17 14 12 8
13 12 13 14 14 11 11 10 12 13 10 8 8 7 11 10 14 15 13 11 19 23 25 22 26 24 28 15 24 19 16 19 20 17 8 11 24 26 21 23 23 19 16 13 11
15 13 13 14 14 13 9 10 15 9 8 8 8 9 11 8 14 15 13 15 20 20 23 17 24 18 27 19 17 20 20 24 17 17 10 12 18 15 20 22 19 17 17 14 12
15 15 14 13 14 12 10 11 4 10 8 7 6 5 11 16 16 16 12 12 22 21 18 17 12 20 19 18 19 21 23 19 22 16 15 13 18 18 15 22 13 14 17 12 12
16 15 14 13 13 10 11 6 6 5 11 12 15 10 9 9 13 16 15 18 21 22 20 19 17 23 29 26 23 23 23 24 13 17 18 16 17 16 14 20 14 16 15 15 13
15 16 14 14 14 10 10 10 13 9 11 28 21 17 13 9 15 14 20 17 21 22 22 19 22 22 20 19 22 22 12 20 7 12 17 16 18 18 16 25 17 20 16 11 4
14 14 14 15 13 11 16 20 11 11 10 14 23 20 13 15 16 19 23 17 23 23 24 19 21 20 20 22 20 19 15 15 15 19 19 19 20 18 19 15 15 7 3 5 5
16 14 12 12 9 8 10 17 15 10 9 14 18 12 19 16 17 22 21 14 15 22 24 18 19 24 20 22 20 16 14 19 13 15 13 16 8 16 19 17 14 12 11 8 3
16 16 12 4 14 11 5 5 9 7 8 24 22 16 17 21 21 23 21 16 19 17 15 17 19 23 20 18 17 20 21 15 11 14 14 19 9 13 22 18 21 12 1 4 4
19 18 13 11 9 14 4 5 7 9 7 12 14 20 23 24 19 23 23 21 17 18 19 20 18 14 17 19 19 22 5 12 15 15 15 17 12 11 18 20 20 12 8 4 5
23 22 14 10 4 17 7 8 7 9 8 17 21 24 22 20 20 24 24 21 17 17 17 13 13 15 16 18 15 17 13 11 11 11 11 21 17 7 11 13 21 17 12 10 6
26 30 9 13 11 11 5 7 9 7 9 11 19 23 22 25 20 24 23 20 20 19 16 14 17 20 11 14 14 20 19 13 11 14 15 8 7 11 13 11 10 12 8 7 5
31 8 7 12 13 13 8 5 4 6 2 7 19 23 21 23 19 21 23 22 20 18 14 16 16 16 17 17 18 16 20 19 11 10 5 10 13 10 14 12 11 11 9 6 3
10 11 8 18 13 11 8 4 4 5 6 10 14 21 23 23 19 24 23 23 23 18 19 11 9 15 11 12 13 13 12 9 8 9 11 8 16 8 19 15 14 12 9 6 4
9 5 7 16 10 9 10 7 8 4 6 3 11 12 16 20 17 21 19 15 19 17 14 10 10 11 14 14 14 12 12 11 11 11 10 11 7 14 13 15 13 13 9 6 4
7 4 10 12 11 9 13 7 5 4 8 5 7 15 13 19 18 17 15 9 9 13 14 8 9 13 17 16 5 13 19 14 8 12 8 8 6 5 3 12 13 11 10 1 3
8 3 6 11 9 12 12 6 2 2 7 5 6 12 20 15 12 12 12 6 6 8 15 7 7 9 5 9 9 11 10 6 6 1 9 7 5 8 2 6 6 5 5 8 3
8 4 5 9 13 12 7 3 1 8 13 5 7 11 18 15 9 13 15 6 9 9 6 2 5 11 5 2 8 16 15 9 11 6 9 14 9 13 9 6 8 7 7 10 4
6 4 9 2 4 7 6 3 3 6 13 16 7 17 14 12 10 14 13 10 8 5 7 6 7 7 2 6 1 11 12 14 16 15 13 9 8 2 5 2 5 8 8 8 7
7 6 7 12 4 9 5 4 4 14 9 9 10 13 11 16 15 17 17 16 16 12 11 9 7 15 19 7 8 9 10 11 12 12 11 10 10 7 6 4 5 2 0 6 4
7 6 5 6 4 2 8 8 8 6 7 11 11 13 7 13 9 8 9 6 15 15 10 9 5 6 11 7 4 9 14 15 12 11 9 10 7 6 2 4 4 4 3 5 5
Wind_Direction
330 328 319 313 315 303 300 303 306 310 310 300 285 293 283 264 261 244 242 217 211 359 319 247 211 222 232 240 249 238 245 238 237 246 215 154 218 187 305 276 277 205 45 77 132
328 325 324 322 321 320 310 296 295 299 303 312 283 273 284 285 268 258 235 230 199 226 227 219 208 208 223 228 219 233 226 232 348 57 308 304 246 54 269 217 218 209 113 113 151
328 325 327 328 320 314 316 291 293 297 297 309 304 276 279 274 270 249 247 191 189 199 238 222 226 209 219 224 216 217 238 244 87 37 322 310 259 254 276 266 183 17 112 154 176
327 323 326 327 321 316 314 304 288 289 301 301 309 275 258 258 262 97 88 183 189 209 221 233 217 216 217 221 220 221 226 239 203 309 293 302 328 272 259 277 331 315 332 292 200
330 324 323 319 316 316 320 308 301 282 287 284 283 242 238 227 251 214 156 175 187 199 207 209 220 219 214 223 225 219 224 222 232 266 271 292 295 299 292 292 293 299 270 257 223
332 324 322 317 315 314 311 304 294 282 264 260 256 220 241 255 248 325 255 157 184 190 206 206 215 222 217 222 221 218 229 245 204 226 273 277 265 297 288 256 270 256 260 237 243
323 318 315 317 314 308 304 297 287 273 259 247 236 232 252 244 329 205 293 181 184 186 203 210 205 217 224 217 219 222 219 239 219 228 250 269 251 243 273 279 271 277 261 247 230
320 319 313 316 314 309 305 307 296 286 251 232 222 227 263 280 233 242 243 192 188 196 211 212 216 220 219 208 219 218 237 219 209 211 198 240 240 236 284 302 275 259 255 237 227
324 322 319 315 313 311 309 301 300 271 212 197 199 232 258 140 219 228 202 188 180 192 218 204 217 236 211 216 187 217 214 215 229 161 181 211 234 250 260 267 265 263 247 237 221
327 325 317 314 309 306 302 291 329 143 183 196 272 235 249 227 184 171 181 182 173 175 202 213 200 218 216 210 211 209 220 237 220 158 206 209 231 234 275 273 263 247 267 236 236
322 321 320 312 303 303 290 210 196 188 215 215 192 243 146 88 158 173 162 161 172 176 187 188 217 207 200 211 219 220 216 221 216 175 198 221 249 239 214 265 273 268 236 254 269
317 315 317 307 299 298 264 245 278 338 266 217 247 227 283 181 167 159 165 167 177 183 184 185 216 201 212 223 224 247 208 219 153 217 192 203 233 252 227 230 201 250 231 205 223
308 307 311 302 301 270 236 236 276 298 259 214 207 225 205 210 176 161 183 174 184 191 198 195 197 217 214 211 220 223 232 216 205 197 197 202 220 212 237 240 260 227 2 134 223
309 306 306 306 280 267 244 236 229 289 267 164 189 206 223 201 179 168 190 170 197 198 199 210 209 203 203 217 218 213 213 227 207 188 212 216 224 212 214 213 246 223 201 198 166
306 304 298 246 306 252 9 118 174 220 236 150 163 161 183 202 149 174 201 185 190 209 197 207 215 189 212 211 201 235 193 226 226 200 244 176 237 259 184 206 201 201 240 191 138
307 303 297 259 226 251 166 135 157 233 229 153 151 173 165 207 161 164 194 211 208 202 206 216 192 203 205 210 192 230 153 205 215 233 220 225 210 228 179 206 189 153 150 238 101
306 296 285 261 253 181 157 185 210 252 154 152 171 177 177 190 177 171 188 199 197 202 192 218 195 200 215 205 185 218 204 195 194 217 234 207 205 207 159 178 146 154 166 153 149
306 302 243 205 223 139 189 216 235 178 273 161 179 184 187 186 177 173 188 194 219 207 183 199 182 203 187 226 195 207 216 238 189 196 211 168 193 120 124 119 120 143 145 154 160
308 271 188 177 178 176 202 214 262 339 292 282 189 190 193 180 168 186 194 203 201 201 214 198 196 170 197 221 202 192 229 248 313 279 274 156 106 125 151 152 150 159 164 141 137
304 288 236 152 180 192 237 249 212 257 342 292 237 195 188 181 176 189 193 200 192 206 235 200 149 165 182 239 239 282 207 214 228 275 233 234 180 201 168 162 167 159 167 157 185
260 228 127 153 180 194 228 237 259 146 173 251 283 232 208 193 188 194 192 182 202 184 230 240 188 197 162 211 206 210 244 212 254 217 224 248 86 105 155 158 163 178 150 179 226
291 237 144 164 198 214 232 193 330 192 179 206 290 275 235 196 205 207 196 146 209 178 198 219 223 180 200 199 274 291 208 223 222 249 271 306 112 76 65 151 168 178 156 166 337
285 255 141 188 230 230 227 149 136 225 228 180 278 254 233 189 203 198 90 58 147 221 201 185 229 166 209 179 219 240 226 276 299 287 258 247 239 11 137 135 127 271 242 181 201
276 257 169 209 254 278 222 199 355 220 255 220 262 289 202 169 156 181 144 148 174 209 353 272 233 234 235 355 256 209 233 238 257 224 248 257 225 198 160 186 204 230 267 293 313
271 344 340 228 269 304 195 143 360 250 219 214 233 238 176 177 176 200 163 156 160 156 200 196 225 265 74 241 132 200 209 221 228 231 232 261 270 178 65 357 300 297 300 295 278
325 350 343 293 331 293 261 149 160 260 250 192 242 202 218 192 186 171 155 166 178 176 181 205 180 239 184 176 248 249 244 244 224 234 243 254 263 299 296 335 262 254 229 285 274
356 321 297 276 200 176 265 166 173 233 298 244 283 139 184 264 270 162 109 149 166 171 179 190 172 213 243 132 266 252 234 231 232 235 248 254 262 69 145 256 275 284 299 281 267